Torna al catalogo

COSMOS 1161

AttivoNavigazioneLEO
NORAD 11696·PAYLOAD·🇷🇺 Russia

Lanciato Feb 11, 1980 da Plesetsk Cosmodrome

Loading…

Prossimi Passaggi (prossime 24 ore)

TLE

AggiornatoSource: Space-Track

Epoca: Sep 14, 2026, 08:28 UTC

1 11696U 80012F   26257.35289317 -.00000026  00000-0 -76303-4 0  9997
2 11696  74.0212  45.6394 0021545  97.0802 263.2697 12.45173761117714

Traccia COSMOS 1161 in tempo reale con AllMySat

Download on the App Store